星链-4776 (STARLINK-4776 )

导读 | 星芒AI

STARLINK-4776 是 SpaceX Starlink 项目中的一颗低轨通信卫星,属于该系列的第 4776 号卫星。它由 SpaceX 研发并发射,旨在为全球用户提供高速互联网服务。该卫星运行在近地轨道,采用先进的通信技术,支持宽带数据传输。Starlink 卫星群由数千颗卫星组成,致力于改善偏远地区的网络接入。STARLINK-4776 的发射和运行有助于增强 Starlink 网络的覆盖范围和稳定性。

基本信息
目录编号:
53837
目录名称:
STARLINK-4776
国际标识:
2022-114V
轨道中心:
EARTH
卫星名称:
星链-4776
卫星全名:
星链-4776 (STARLINK-4776 )
卫星状态:
在轨 (已飞行1143 天)
发射日期:
2022-09-19 UTC
国别 :
美国 (US)
星等 :
--
轨道信息
数据来源 国际轨道数据
星历时间: 2025-11-05T03:33:23+0800
4小时前
查看轨道信息
半长轴: 6917.87km
偏心率: 0.0001726
轨道倾角: 53.215°
近地点辐角 88.960°
升交点赤经 144.414°
平近点角 271.159°
近地点: 538.54km
远地点: 540.93km
周期: 95.437分钟
每日圈数: 15.088435
详细信息
固有亮度:
5
最大亮度:
2.5
卫星平台:
Starlink v1.5
覆盖范围:
全球
运营商:
太空探索技术公司
运营商所在国:
美国
制造商(研发单位):
太空探索技术公司
制造商所在国:
美国
使用方式:
暂无
卫星简介
星链(Starlink)计划是由太空探索技术公司(SpaceX)提出的一个巨型低轨卫星互联网星座项目,计划在2019年至2024年间在太空搭建由约1.2万颗卫星组成的“星链”网络,其中1584颗将部署在地球上空550千米处的近地轨道,并从2020年开始工作。该卫星仍在工作。
2D轨道图
3D轨道图
轨道高度分析图
轨道倾角分析图
轨道综合分析图
查看轨道综合分析图